| time (UTC) | temp F | wind direction | speed MPH | gust MPH | rain 1hr in | rain 24hr in | rain mn in | humidity % | barometer mb |
| 20260906014311 | 57 | 251 | 3.0 | 4.0 | 0.00 | 0.24 | 0.00 | 79 | 1026.3 |
| 20260906013311 | 58 | 242 | 3.0 | 4.0 | 0.00 | 0.24 | 0.00 | 77 | 1026.4 |
| 20260906012310 | 58 | 259 | 4.0 | 5.0 | 0.00 | 0.24 | 0.00 | 76 | 1026.4 |
| 20260906011310 | 59 | 237 | 3.0 | 6.0 | 0.00 | 0.24 | 0.00 | 76 | 1026.4 |
| 20260906010310 | 58 | 256 | 3.0 | 5.0 | 0.00 | 0.24 | 0.00 | 77 | 1026.4 |
| 20260906005310 | 59 | 266 | 3.0 | 6.0 | 0.00 | 0.24 | 0.00 | 76 | 1026.4 |
| 20260906004310 | 59 | 234 | 3.0 | 4.0 | 0.00 | 0.24 | 0.00 | 76 | 1026.2 |
| 20260906003310 | 59 | 241 | 3.0 | 4.0 | 0.00 | 0.24 | 0.00 | 76 | 1026.2 |
| 20260906002310 | 60 | 227 | 3.0 | 4.0 | 0.00 | 0.24 | 0.00 | 75 | 1026.1 |
| 20260906001310 | 60 | 211 | 3.0 | 4.0 | 0.00 | 0.24 | 0.00 | 75 | 1026.1 |
| 20260906000311 | 60 | 220 | 3.0 | 5.0 | 0.00 | 0.24 | 0.00 | 74 | 1026.0 |
| 20260905235310 | 60 | 205 | 3.0 | 4.0 | 0.00 | 0.24 | 0.00 | 72 | 1025.9 |
| 20260905234310 | 60 | 244 | 3.0 | 4.0 | 0.00 | 0.24 | 0.00 | 74 | 1025.8 |
| 20260905233311 | 61 | 209 | 2.0 | 4.0 | 0.00 | 0.24 | 0.00 | 73 | 1025.9 |
| 20260905232310 | 61 | 213 | 2.0 | 5.0 | 0.00 | 0.24 | 0.00 | 72 | 1025.9 |
| 20260905231310 | 62 | 227 | 3.0 | 5.0 | 0.00 | 0.24 | 0.00 | 72 | 1025.8 |
| 20260905230310 | 62 | 227 | 3.0 | 6.0 | 0.00 | 0.24 | 0.00 | 71 | 1025.8 |
| 20260905225310 | 62 | 186 | 3.0 | 6.0 | 0.00 | 0.24 | 0.00 | 74 | 1025.6 |
| 20260905224310 | 62 | 208 | 3.0 | 4.0 | 0.00 | 0.24 | 0.00 | 74 | 1025.5 |
| 20260905223310 | 62 | 189 | 3.0 | 4.0 | 0.00 | 0.24 | 0.00 | 75 | 1025.5 |
| 20260905222309 | 62 | 196 | 2.0 | 4.0 | 0.00 | 0.24 | 0.00 | 75 | 1025.4 |
| 20260905221309 | 63 | 199 | 4.0 | 7.0 | 0.00 | 0.24 | 0.00 | 73 | 1025.3 |
| 20260905220309 | 63 | 219 | 2.0 | 5.0 | 0.00 | 0.24 | 0.00 | 74 | 1025.3 |
| 20260905215310 | 63 | 229 | 2.0 | 3.0 | 0.00 | 0.24 | 0.24 | 75 | 1025.2 |
| 20260905214310 | 63 | 218 | 0.0 | 3.0 | 0.00 | 0.24 | 0.24 | 77 | 1025.0 |
| 20260905213310 | 64 | 239 | 0.0 | 3.0 | 0.00 | 0.24 | 0.24 | 78 | 1025.0 |
| 20260905212310 | 64 | 237 | 2.0 | 5.0 | 0.00 | 0.24 | 0.24 | 78 | 1024.8 |
| 20260905211310 | 64 | 261 | 3.0 | 7.0 | 0.00 | 0.24 | 0.24 | 78 | 1024.5 |
| 20260905210310 | 64 | 284 | 2.0 | 6.0 | 0.00 | 0.24 | 0.24 | 79 | 1024.4 |
| 20260905205310 | 65 | 258 | 3.0 | 7.0 | 0.00 | 0.24 | 0.24 | 78 | 1024.4 |
| 20260905204310 | 65 | 255 | 6.0 | 9.0 | 0.00 | 0.24 | 0.24 | 77 | 1024.4 |
| 20260905203309 | 65 | 263 | 3.0 | 6.0 | 0.00 | 0.24 | 0.24 | 77 | 1024.3 |
| 20260905202309 | 65 | 253 | 0.0 | 9.0 | 0.00 | 0.24 | 0.24 | 76 | 1024.0 |
| 20260905201310 | 65 | 250 | 4.0 | 7.0 | 0.00 | 0.24 | 0.24 | 76 | 1023.9 |
| 20260905200310 | 65 | 221 | 3.0 | 9.0 | 0.00 | 0.24 | 0.24 | 76 | 1023.9 |
| 20260905195309 | 65 | 217 | 5.0 | 8.0 | 0.00 | 0.24 | 0.24 | 76 | 1023.7 |
| 20260905194309 | 65 | 197 | 5.0 | 8.0 | 0.00 | 0.24 | 0.24 | 75 | 1023.7 |
| 20260905193309 | 65 | 199 | 3.0 | 9.0 | 0.00 | 0.24 | 0.24 | 75 | 1023.7 |
| 20260905192309 | 65 | 199 | 2.0 | 7.0 | 0.00 | 0.24 | 0.24 | 73 | 1023.4 |
| 20260905191309 | 65 | 228 | 7.0 | 12.0 | 0.00 | 0.24 | 0.24 | 73 | 1023.3 |
| 20260905190309 | 65 | 213 | 5.0 | 10.0 | 0.00 | 0.24 | 0.24 | 73 | 1023.3 |
| 20260905185315 | 65 | 202 | 6.0 | 11.0 | 0.00 | 0.24 | 0.24 | 72 | 1023.3 |
| 20260905184315 | 64 | 205 | 5.0 | 11.0 | 0.00 | 0.24 | 0.24 | 71 | 1023.1 |
| 20260905183315 | 64 | 167 | 6.0 | 10.0 | 0.00 | 0.24 | 0.24 | 71 | 1023.0 |
| 20260905182315 | 64 | 204 | 7.0 | 10.0 | 0.00 | 0.24 | 0.24 | 70 | 1022.8 |
| 20260905181315 | 65 | 203 | 8.0 | 12.0 | 0.00 | 0.24 | 0.24 | 69 | 1022.8 |
| 20260905180315 | 65 | 194 | 8.0 | 10.0 | 0.00 | 0.24 | 0.24 | 68 | 1022.7 |
| 20260905175315 | 65 | 229 | 6.0 | 9.0 | 0.00 | 0.24 | 0.24 | 67 | 1022.8 |
| 20260905174315 | 65 | 226 | 4.0 | 11.0 | 0.00 | 0.24 | 0.24 | 66 | 1022.8 |
| 20260905173315 | 66 | 200 | 6.0 | 10.0 | 0.00 | 0.24 | 0.24 | 65 | 1022.8 |
| 20260905172315 | 66 | 219 | 5.0 | 13.0 | 0.00 | 0.24 | 0.24 | 65 | 1022.6 |
| 20260905171315 | 67 | 213 | 7.0 | 11.0 | 0.00 | 0.24 | 0.24 | 65 | 1022.6 |
| 20260905170315 | 67 | 206 | 5.0 | 11.0 | 0.00 | 0.24 | 0.24 | 64 | 1022.6 |
| 20260905165314 | 68 | 195 | 6.0 | 11.0 | 0.00 | 0.24 | 0.24 | 63 | 1022.8 |
| 20260905164314 | 68 | 208 | 5.0 | 10.0 | 0.00 | 0.24 | 0.24 | 61 | 1022.6 |
| 20260905163315 | 68 | 196 | 7.0 | 12.0 | 0.00 | 0.24 | 0.24 | 61 | 1022.7 |
| 20260905162314 | 69 | 202 | 8.0 | 11.0 | 0.00 | 0.24 | 0.24 | 60 | 1022.7 |
| 20260905161315 | 69 | 251 | 9.0 | 15.0 | 0.00 | 0.24 | 0.24 | 60 | 1022.9 |
| 20260905160314 | 69 | 241 | 6.0 | 13.0 | 0.00 | 0.24 | 0.24 | 60 | 1022.8 |
| 20260905155315 | 69 | 188 | 7.0 | 11.0 | 0.00 | 0.24 | 0.24 | 61 | 1022.8 |
| 20260905154314 | 69 | 200 | 6.0 | 11.0 | 0.00 | 0.24 | 0.24 | 61 | 1022.7 |
| 20260905153314 | 69 | 231 | 4.0 | 10.0 | 0.00 | 0.24 | 0.24 | 63 | 1023.0 |
| 20260905152314 | 69 | 209 | 7.0 | 11.0 | 0.00 | 0.24 | 0.24 | 64 | 1023.1 |
| 20260905151314 | 69 | 219 | 3.0 | 12.0 | 0.00 | 0.24 | 0.24 | 64 | 1023.1 |
| 20260905150314 | 69 | 223 | 7.0 | 12.0 | 0.00 | 0.24 | 0.24 | 65 | 1023.0 |
| 20260905145314 | 68 | 205 | 6.0 | 13.0 | 0.00 | 0.24 | 0.24 | 66 | 1022.9 |
| 20260905144314 | 68 | 262 | 10.0 | 16.0 | 0.00 | 0.24 | 0.24 | 65 | 1023.0 |
| 20260905143314 | 68 | 190 | 8.0 | 16.0 | 0.00 | 0.24 | 0.24 | 65 | 1023.0 |
| 20260905142314 | 68 | 263 | 11.0 | 16.0 | 0.00 | 0.24 | 0.24 | 65 | 1023.2 |
| 20260905141314 | 68 | 257 | 7.0 | 13.0 | 0.00 | 0.24 | 0.24 | 66 | 1023.1 |
| 20260905140314 | 67 | 240 | 7.0 | 16.0 | 0.00 | 0.24 | 0.24 | 66 | 1023.1 |
| 20260905135315 | 67 | 227 | 4.0 | 13.0 | 0.00 | 0.24 | 0.24 | 68 | 1023.3 |
| 20260905134314 | 67 | 261 | 7.0 | 17.0 | 0.00 | 0.24 | 0.24 | 66 | 1023.3 |
| 20260905133314 | 67 | 266 | 6.0 | 14.0 | 0.00 | 0.24 | 0.24 | 67 | 1023.2 |
| 20260905132314 | 68 | 227 | 6.0 | 12.0 | 0.00 | 0.24 | 0.24 | 65 | 1023.2 |
| 20260905131314 | 68 | 238 | 8.0 | 13.0 | 0.00 | 0.24 | 0.24 | 63 | 1022.9 |
| 20260905130314 | 68 | 267 | 9.0 | 14.0 | 0.00 | 0.24 | 0.24 | 64 | 1023.0 |
| 20260905125314 | 68 | 242 | 8.0 | 14.0 | 0.00 | 0.24 | 0.24 | 64 | 1023.1 |
| 20260905124314 | 67 | 254 | 9.0 | 16.0 | 0.00 | 0.24 | 0.24 | 64 | 1023.1 |
| 20260905123313 | 68 | 272 | 8.0 | 12.0 | 0.00 | 0.24 | 0.24 | 65 | 1023.4 |
| 20260905122313 | 67 | 224 | 10.0 | 15.0 | 0.00 | 0.24 | 0.24 | 67 | 1023.2 |
| 20260905121314 | 67 | 266 | 6.0 | 13.0 | 0.00 | 0.24 | 0.24 | 68 | 1023.4 |
| 20260905120313 | 66 | 283 | 8.0 | 11.0 | 0.00 | 0.24 | 0.24 | 68 | 1023.2 |
| 20260905115313 | 65 | 245 | 4.0 | 10.0 | 0.00 | 0.24 | 0.24 | 71 | 1023.3 |
| 20260905114314 | 65 | 273 | 6.0 | 12.0 | 0.00 | 0.24 | 0.24 | 71 | 1023.3 |
| 20260905113313 | 65 | 227 | 5.0 | 9.0 | 0.00 | 0.24 | 0.24 | 72 | 1023.4 |
| 20260905112313 | 65 | 271 | 9.0 | 15.0 | 0.00 | 0.24 | 0.24 | 70 | 1023.4 |
| 20260905111313 | 65 | 295 | 4.0 | 15.0 | 0.00 | 0.24 | 0.24 | 72 | 1023.3 |
| 20260905110313 | 65 | 208 | 6.0 | 11.0 | 0.00 | 0.24 | 0.24 | 71 | 1023.3 |
| 20260905105313 | 65 | 257 | 10.0 | 12.0 | 0.00 | 0.24 | 0.24 | 71 | 1023.3 |
| 20260905104314 | 65 | 223 | 7.0 | 10.0 | 0.00 | 0.24 | 0.24 | 72 | 1023.1 |
| 20260905103313 | 65 | 240 | 9.0 | 12.0 | 0.00 | 0.24 | 0.24 | 73 | 1023.0 |
| 20260905102313 | 64 | 180 | 4.0 | 7.0 | 0.00 | 0.24 | 0.24 | 77 | 1022.9 |
| 20260905101313 | 64 | 204 | 5.0 | 7.0 | 0.00 | 0.24 | 0.24 | 78 | 1022.9 |
| 20260905100313 | 63 | 238 | 4.0 | 6.0 | 0.00 | 0.24 | 0.24 | 78 | 1023.1 |
| 20260905095313 | 63 | 206 | 3.0 | 6.0 | 0.00 | 0.24 | 0.24 | 80 | 1022.9 |
| 20260905094313 | 62 | 251 | 5.0 | 9.0 | 0.00 | 0.24 | 0.24 | 80 | 1022.8 |
| 20260905093313 | 62 | 204 | 6.0 | 11.0 | 0.00 | 0.24 | 0.24 | 83 | 1022.8 |
| 20260905092313 | 60 | 180 | 6.0 | 10.0 | 0.00 | 0.24 | 0.24 | 85 | 1022.6 |
| 20260905091313 | 59 | 177 | 5.0 | 11.0 | 0.00 | 0.24 | 0.24 | 85 | 1022.6 |
| 20260905090313 | 58 | 217 | 5.0 | 12.0 | 0.00 | 0.24 | 0.24 | 85 | 1022.5 |
| 20260905085313 | 58 | 186 | 8.0 | 13.0 | 0.00 | 0.24 | 0.24 | 86 | 1022.2 |
| 20260905084313 | 58 | 163 | 6.0 | 11.0 | 0.00 | 0.24 | 0.24 | 86 | 1022.2 |
| 20260905083313 | 58 | 200 | 4.0 | 11.0 | 0.00 | 0.24 | 0.24 | 87 | 1022.3 |
| 20260905082312 | 57 | 242 | 7.0 | 11.0 | 0.00 | 0.24 | 0.24 | 87 | 1022.3 |
| 20260905081312 | 57 | 200 | 6.0 | 12.0 | 0.01 | 0.24 | 0.24 | 88 | 1022.3 |
| 20260905080313 | 57 | 221 | 6.0 | 9.0 | 0.02 | 0.24 | 0.24 | 88 | 1022.3 |
| 20260905075313 | 57 | 167 | 7.0 | 12.0 | 0.05 | 0.24 | 0.24 | 88 | 1022.3 |
| 20260905074313 | 57 | 209 | 9.0 | 13.0 | 0.06 | 0.24 | 0.24 | 88 | 1021.9 |
| 20260905073312 | 57 | 173 | 8.0 | 17.0 | 0.09 | 0.24 | 0.24 | 89 | 1021.8 |
| 20260905072312 | 56 | 184 | 8.0 | 11.0 | 0.09 | 0.24 | 0.24 | 89 | 1021.7 |
| 20260905071312 | 56 | 188 | 6.0 | 13.0 | 0.10 | 0.23 | 0.23 | 88 | 1021.8 |
| 20260905070312 | 56 | 171 | 6.0 | 9.0 | 0.12 | 0.22 | 0.22 | 88 | 1021.7 |
| 20260905065312 | 56 | 174 | 4.0 | 11.0 | 0.12 | 0.19 | 0.19 | 88 | 1021.5 |
| 20260905064313 | 56 | 154 | 5.0 | 7.0 | 0.13 | 0.17 | 0.17 | 87 | 1021.4 |
| 20260905063312 | 56 | 232 | 6.0 | 9.0 | 0.14 | 0.15 | 0.15 | 86 | 1021.8 |
| 20260905062312 | 56 | 224 | 5.0 | 8.0 | 0.14 | 0.15 | 0.15 | 86 | 1021.6 |
| 20260905061312 | 57 | 255 | 5.0 | 7.0 | 0.12 | 0.13 | 0.13 | 84 | 1021.7 |
| 20260905060312 | 58 | 269 | 4.0 | 6.0 | 0.09 | 0.10 | 0.10 | 82 | 1021.8 |
| 20260905055311 | 59 | 300 | 5.0 | 12.0 | 0.06 | 0.07 | 0.07 | 79 | 1022.1 |
| 20260905054312 | 61 | 340 | 7.0 | 14.0 | 0.03 | 0.04 | 0.04 | 74 | 1021.8 |
| 20260905053312 | 62 | 335 | 7.0 | 13.0 | 0.00 | 0.01 | 0.01 | 69 | 1021.4 |
| 20260905052312 | 63 | 313 | 6.0 | 17.0 | 0.00 | 0.01 | 0.01 | 67 | 1021.1 |
| 20260905051312 | 63 | 341 | 12.0 | 21.0 | 0.01 | 0.01 | 0.01 | 65 | 1020.7 |
| 20260905050312 | 64 | 328 | 7.0 | 12.0 | 0.01 | 0.01 | 0.01 | 65 | 1020.8 |
| 20260905045311 | 65 | 324 | 7.0 | 11.0 | 0.01 | 0.01 | 0.01 | 65 | 1020.6 |
| 20260905044311 | 65 | 320 | 9.0 | 15.0 | 0.01 | 0.01 | 0.01 | 65 | 1020.4 |
| 20260905043311 | 65 | 294 | 4.0 | 16.0 | 0.01 | 0.01 | 0.01 | 66 | 1020.5 |
| 20260905042312 | 66 | 282 | 6.0 | 13.0 | 0.01 | 0.01 | 0.01 | 66 | 1020.1 |
| 20260905041312 | 67 | 329 | 7.0 | 15.0 | 0.00 | 0.00 | 0.00 | 61 | 1019.5 |
| 20260905040312 | 67 | 304 | 7.0 | 19.0 | 0.00 | 0.00 | 0.00 | 60 | 1019.4 |
| 20260905035311 | 68 | 305 | 10.0 | 17.0 | 0.00 | 0.00 | 0.00 | 61 | 1018.9 |
| 20260905034311 | 69 | 313 | 7.0 | 16.0 | 0.00 | 0.00 | 0.00 | 61 | 1018.7 |
| 20260905033311 | 71 | 318 | 11.0 | 18.0 | 0.00 | 0.00 | 0.00 | 60 | 1018.4 |
| 20260905032311 | 73 | 274 | 15.0 | 20.0 | 0.00 | 0.00 | 0.00 | 60 | 1018.3 |
| 20260905031311 | 73 | 243 | 6.0 | 9.0 | 0.00 | 0.00 | 0.00 | 59 | 1018.0 |
| 20260905030311 | 73 | 252 | 4.0 | 11.0 | 0.00 | 0.00 | 0.00 | 59 | 1018.0 |
| 20260905025311 | 73 | 242 | 8.0 | 11.0 | 0.00 | 0.00 | 0.00 | 59 | 1017.9 |
| 20260905024311 | 74 | 246 | 7.0 | 12.0 | 0.00 | 0.00 | 0.00 | 58 | 1017.9 |
| 20260905023311 | 74 | 240 | 9.0 | 12.0 | 0.00 | 0.00 | 0.00 | 58 | 1017.8 |
| 20260905022311 | 74 | 220 | 8.0 | 12.0 | 0.00 | 0.00 | 0.00 | 58 | 1017.8 |
| 20260905021311 | 74 | 193 | 8.0 | 14.0 | 0.00 | 0.00 | 0.00 | 58 | 1017.7 |
| 20260905020311 | 74 | 182 | 5.0 | 8.0 | 0.00 | 0.00 | 0.00 | 58 | 1017.5 |
| 20260905015311 | 74 | 187 | 7.0 | 11.0 | 0.00 | 0.00 | 0.00 | 57 | 1017.5 |